User: anonymous   Login
Location: Theydon Bois
(51.6750°N, 0.1050°E)
Time: 20:47:19
(UTC+00:00)
Language:

SKYMED 2 - Orbit

View from above orbital plane
View from above orbital plane
View from above satellite
View from above satellite

Ground track
Ground track

The orbit data is extracted from the following two-line orbital elements,

1 32376U 07059A   17347.51530643 -.00000238  00000-0 -23304-4 0  9992
2 32376  97.8866 168.6589 0001435  87.4598 272.6791 14.82150180541750
Epoch (UTC): 13 December 2017 12:22:02
Eccentricity: 0.0001435
inclination: 97.8866°
perigee height: 621 km
apogee height: 623 km
right ascension of ascending node: 168.6589°
argument of perigee: 87.4598°
revolutions per day: 14.82150180
mean anomaly at epoch: 272.6791°
orbit number at epoch: 54175

The dashed part of the orbit path shows where the satellite is in the earth's shadow,  

DLR